Regional Weather Roundup
Issued by NWS

Home | Current Version | Previous Version | Graphics & Text | Print | Product List | Glossary On
Versions: 1 2 3 4 5 6 7 8 9 10 11 12 13 14 15 16 17 18 19 20 21 22 23 24 25 26 27 28 29 30 31 32 33 34 35 36 37 38 39 40 41 42 43 44 45 46 47 48 49 50
660
ASUS43 KOAX 191310
RWRNE

WEATHER ROUNDUP FOR NEBRASKA
NATIONAL WEATHER SERVICE OMAHA NE
700 AM CST THU JAN 19 2017

NOTES: SATELLITE DATA IS BEING USED TO AUGMENT CLOUD COVER ABOVE
       12000 FEET.
       "FAIR" INDICATES FEW OR NO CLOUDS BELOW 12,000 FEET WITH NO
       SIGNIFICANT WEATHER AND/OR OBSTRUCTIONS TO VISIBILITY.

  * THESE STATIONS DO NOT REPORT WEATHER SUCH AS RAIN...SNOW OR FOG.

NEZ001>004-019>022-054>056-191400-
NEBRASKA PANHANDLE

CITY           SKY/WX    TMP DP  RH WIND       PRES   REMARKS
SCOTTSBLUFF    CLOUDY    21  17  84 E5        29.60S WCI  15
ALLIANCE       CLOUDY    14  10  84 CALM      29.58F
CHADRON        CLOUDY    18  14  84 W8        29.57F WCI   8
KIMBALL        CLOUDY    27  21  76 W3        29.61S
SIDNEY         CLOUDY    22  17  81 W3        29.60S
$$

NEZ057>060-069>072-079>082-191400-
SOUTHWEST NEBRASKA

CITY           SKY/WX    TMP DP  RH WIND       PRES   REMARKS
NORTH PLATTE   FOG       32  32 100 CALM      29.65F VSB 1/4
IMPERIAL       CLOUDY    21  18  88 SE6       29.62F WCI  13
LEXINGTON      FOG       38  37  95 CALM      29.67S VSB 3/4
MCCOOK         FOG       34  34 100 CALM      29.66S VSB 1/4
OGALLALA       CLOUDY    21  19  93 CALM      29.62R
$$

NEZ005>010-023>029-035>040-094-191400-
NORTH CENTRAL NEBRASKA

CITY           SKY/WX    TMP DP  RH WIND       PRES   REMARKS
VALENTINE      CLOUDY    22  19  89 NE6       29.58S WCI  14
AINSWORTH      CLEAR     30  30 100 S9        29.60F FOG     WCI  22
BROKEN BOW     FOG       38  37  97 S9        29.65F VSB 1   WCI  31
O`NEILL        FOG       37  37  99 S13       29.66F VSB 3/4 WCI  29
ORD            FOG       37  35  92 SE7       29.67F VSB 1   WCI  32
THEDFORD       FOG       30  29  99 S7        29.62F VSB 3/4 WCI  23
$$

NEZ041-046>049-061>064-073>077-083>087-191400-
SOUTH CENTRAL NEBRASKA

CITY           SKY/WX    TMP DP  RH WIND       PRES   REMARKS
GRAND ISLAND   CLOUDY    37  37 100 SE3       29.71F FOG
AURORA         FOG       36  36 100 S3        29.72F VSB 1/2
HASTINGS       FOG       38  38 100 S7        29.71F VSB 1/2 WCI  33
HEBRON         FOG       38  38  98 S5        29.75F VSB 1   WCI  35
HOLDREGE       FOG       38  37  97 SE6       29.67F VSB 1/2 WCI  33
KEARNEY *      CLOUDY    37  34  87 SE5       29.69S VSB 1/4 WCI  34
YORK           FOG       37  37 100 S6        29.74S VSB 3/4 WCI  33
$$

NEZ011>018-030>034-042>045-191400-
NORTHEAST NEBRASKA

CITY           SKY/WX    TMP DP  RH WIND       PRES   REMARKS
NORFOLK        CLOUDY    35  34  96 S6        29.73S FOG     WCI  30
ALBION         FOG       36  35  96 S6        29.71F VSB 1/2 WCI  31
BLAIR          CLEAR     35  34  96 SE7       29.77S FOG     WCI  29
FREMONT        PTCLDY    33  33 100 CALM      29.78R
TEKAMAH        CLEAR     33  31  92 SE5       29.79S FOG     WCI  29
WAYNE          CLOUDY    35  33  93 S9        29.74F WCI  28
$$

NEZ050>053-065>068-078-088>093-191400-
SOUTHEAST NEBRASKA

CITY           SKY/WX    TMP DP  RH WIND       PRES   REMARKS
LINCOLN        CLOUDY    35  33  92 CALM      29.78S
OMAHA EPPLEY   PTCLDY    33  29  85 CALM      29.79S FOG
BEATRICE       CLOUDY    40  38  95 CALM      29.77S FOG
FALLS CITY     FOG       36  36 100 SE6       29.79S VSB 1/4 WCI  31
NEBRASKA CITY  CLOUDY    36  36 100 S5        29.79S FOG     WCI  32
PLATTSMOUTH    CLOUDY    37  35  90 SE10      29.78S FOG     WCI  30
$$

NEZ044-045-051>053-067-191400-
OMAHA AREA

CITY           SKY/WX    TMP DP  RH WIND       PRES   REMARKS
OMAHA EPPLEY   PTCLDY    33  29  85 CALM      29.79S FOG
BLAIR          CLEAR     35  34  96 SE7       29.77S FOG     WCI  29
FREMONT        PTCLDY    33  33 100 CALM      29.78R
MILLARD        CLEAR     33  32  95 CALM      29.79S FOG
OFFUTT AFB     MOCLDY    31  31 100 E3        29.79S
PLATTSMOUTH    CLOUDY    37  35  90 SE10      29.78S FOG     WCI  30
WAHOO          FAIR      32  31  96 SE6       29.77F FOG     WCI  26
$$




USA.gov is the U.S. government's official web portal to all federal, state and local government web resources and services.